| time (UTC) | temp F | wind direction | speed knots | gust knots | rain 1hr in | rain 24hr in | rain mn in | humidity % | barometer mb |
| 20260906193008 | 85 | 278 | 0.9 | 5.2 | 0.00 | 0.00 | 0.00 | 77 | 1017.3 |
| 20260906191512 | 84 | 279 | 0.9 | 4.3 | 0.00 | 0.00 | 0.00 | 79 | 1017.4 |
| 20260906190015 | 84 | 221 | 0.9 | 7.0 | 0.00 | 0.00 | 0.00 | 80 | 1017.7 |
| 20260906184524 | 83 | 197 | 0.9 | 5.2 | 0.00 | 0.00 | 0.00 | 80 | 1018.0 |
| 20260906183035 | 83 | 303 | 0.0 | 4.3 | 0.00 | 0.00 | 0.00 | 80 | 1018.0 |
| 20260906181529 | 82 | 250 | 0.9 | 5.2 | 0.00 | 0.00 | 0.00 | 81 | 1017.9 |
| 20260906180028 | 82 | 248 | 0.0 | 6.1 | 0.00 | 0.00 | 0.00 | 81 | 1018.1 |
| 20260906174531 | 82 | 263 | 0.0 | 3.5 | 0.00 | 0.00 | 0.00 | 81 | 1018.0 |
| 20260906173017 | 82 | 291 | 1.7 | 5.2 | 0.00 | 0.00 | 0.00 | 80 | 1018.3 |
| 20260906171530 | 83 | 256 | 2.6 | 5.2 | 0.00 | 0.00 | 0.00 | 79 | 1018.1 |
| 20260906170033 | 83 | 217 | 0.0 | 4.3 | 0.00 | 0.00 | 0.00 | 79 | 1018.1 |
| 20260906164533 | 83 | 268 | 1.7 | 6.1 | 0.00 | 0.00 | 0.00 | 77 | 1018.1 |
| 20260906163031 | 82 | 283 | 0.9 | 7.8 | 0.00 | 0.00 | 0.00 | 79 | 1017.9 |
| 20260906161528 | 81 | 293 | 0.9 | 4.3 | 0.00 | 0.00 | 0.00 | 81 | 1018.0 |
| 20260906160008 | 80 | 239 | 1.7 | 7.0 | 0.00 | 0.00 | 0.00 | 82 | 1018.2 |
| 20260906154511 | 79 | 135 | 0.0 | 4.3 | 0.00 | 0.00 | 0.00 | 84 | 1018.3 |
| 20260906153013 | 79 | 135 | 0.0 | 4.3 | 0.00 | 0.00 | 0.00 | 85 | 1018.4 |
| 20260906151504 | 78 | 135 | 0.9 | 4.3 | 0.00 | 0.00 | 0.00 | 85 | 1018.4 |
| 20260906150016 | 77 | 135 | 0.0 | 5.2 | 0.00 | 0.00 | 0.00 | 86 | 1018.5 |
| 20260906144507 | 77 | 135 | 0.0 | 2.6 | 0.00 | 0.00 | 0.00 | 89 | 1018.5 |
| 20260906143003 | 76 | 135 | 0.0 | 2.6 | 0.00 | 0.00 | 0.00 | 90 | 1018.4 |
| 20260906141505 | 75 | 135 | 0.9 | 4.3 | 0.00 | 0.00 | 0.00 | 91 | 1018.6 |
| 20260906140003 | 74 | 135 | 0.9 | 2.6 | 0.00 | 0.00 | 0.00 | 91 | 1018.6 |
| 20260906134508 | 74 | 135 | 0.0 | 3.5 | 0.00 | 0.00 | 0.00 | 92 | 1018.6 |
| 20260906133006 | 74 | 135 | 0.0 | 4.3 | 0.00 | 0.00 | 0.00 | 92 | 1018.5 |
| 20260906131522 | 73 | 135 | 0.0 | 1.7 | 0.00 | 0.00 | 0.00 | 92 | 1018.4 |
| 20260906130009 | 73 | 135 | 0.0 | 2.6 | 0.00 | 0.00 | 0.00 | 92 | 1018.7 |
| 20260906124504 | 73 | 135 | 0.0 | 2.6 | 0.00 | 0.00 | 0.00 | 92 | 1018.4 |
| 20260906123011 | 72 | 135 | 0.0 | 1.7 | 0.00 | 0.00 | 0.00 | 91 | 1018.1 |
| 20260906121513 | 72 | 135 | 0.0 | 2.6 | 0.00 | 0.00 | 0.00 | 91 | 1017.9 |
| 20260906120007 | 72 | 135 | 0.0 | 1.7 | 0.00 | 0.00 | 0.00 | 91 | 1017.9 |
| 20260906114513 | 72 | 135 | 0.0 | 2.6 | 0.00 | 0.00 | 0.00 | 91 | 1017.4 |
| 20260906113011 | 73 | 135 | 0.0 | 3.5 | 0.00 | 0.00 | 0.00 | 91 | 1017.2 |
| 20260906111510 | 73 | 135 | 0.0 | 4.3 | 0.00 | 0.00 | 0.00 | 91 | 1017.3 |
| 20260906110009 | 73 | 135 | 0.0 | 1.7 | 0.00 | 0.00 | 0.00 | 90 | 1017.2 |
| 20260906104517 | 73 | 135 | 0.0 | 0.0 | 0.00 | 0.00 | 0.00 | 90 | 1017.3 |
| 20260906103010 | 73 | 135 | 0.0 | 1.7 | 0.00 | 0.00 | 0.00 | 90 | 1017.6 |
| 20260906101531 | 73 | 135 | 0.0 | 1.7 | 0.00 | 0.00 | 0.00 | 90 | 1017.3 |
| 20260906100015 | 74 | 135 | 0.0 | 1.7 | 0.00 | 0.00 | 0.00 | 89 | 1017.3 |
| 20260906094531 | 74 | 135 | 0.0 | 4.3 | 0.00 | 0.00 | 0.00 | 90 | 1017.3 |
| 20260906093006 | 74 | 135 | 0.0 | 1.7 | 0.00 | 0.00 | 0.00 | 89 | 1017.3 |
| 20260906091503 | 74 | 135 | 0.0 | 3.5 | 0.00 | 0.00 | 0.00 | 89 | 1017.1 |
| 20260906090011 | 74 | 135 | 0.9 | 2.6 | 0.00 | 0.00 | 0.00 | 89 | 1016.8 |
| 20260906084512 | 75 | 135 | 0.9 | 4.3 | 0.00 | 0.00 | 0.00 | 89 | 1016.6 |
| 20260906083004 | 75 | 135 | 0.0 | 3.5 | 0.00 | 0.00 | 0.00 | 89 | 1016.6 |
| 20260906081515 | 75 | 135 | 1.7 | 4.3 | 0.00 | 0.00 | 0.00 | 89 | 1016.7 |
| 20260906080006 | 75 | 135 | 0.0 | 5.2 | 0.00 | 0.00 | 0.00 | 89 | 1016.4 |
| 20260906074506 | 75 | 135 | 0.0 | 5.2 | 0.00 | 0.00 | 0.00 | 89 | 1016.4 |
| 20260906073004 | 76 | 135 | 0.9 | 4.3 | 0.00 | 0.00 | 0.00 | 89 | 1016.5 |
| 20260906071504 | 76 | 135 | 0.0 | 7.0 | 0.00 | 0.00 | 0.00 | 89 | 1016.6 |
| 20260906070006 | 77 | 135 | 0.0 | 2.6 | 0.00 | 0.00 | 0.00 | 89 | 1016.5 |
| 20260906064509 | 77 | 135 | 0.0 | 3.5 | 0.00 | 0.00 | 0.00 | 89 | 1016.6 |
| 20260906063010 | 78 | 135 | 0.0 | 1.7 | 0.00 | 0.00 | 0.00 | 89 | 1016.7 |
| 20260906061508 | 78 | 135 | 0.0 | 1.7 | 0.00 | 0.00 | 0.00 | 89 | 1016.7 |
| 20260906060004 | 79 | 135 | 0.0 | 4.3 | 0.00 | 0.00 | 0.00 | 88 | 1016.6 |
| 20260906054508 | 79 | 135 | 0.0 | 4.3 | 0.00 | 0.00 | 0.00 | 88 | 1016.6 |
| 20260906053006 | 79 | 135 | 0.0 | 5.2 | 0.00 | 0.00 | 0.00 | 87 | 1016.6 |
| 20260906051509 | 80 | 135 | 0.9 | 3.5 | 0.00 | 0.00 | 0.00 | 87 | 1016.6 |
| 20260906050009 | 80 | 135 | 0.0 | 3.5 | 0.00 | 0.00 | 0.00 | 86 | 1016.6 |
| 20260906044505 | 81 | 135 | 0.0 | 3.5 | 0.00 | 0.00 | 0.00 | 85 | 1016.5 |
| 20260906043010 | 81 | 135 | 0.0 | 3.5 | 0.00 | 0.00 | 0.00 | 84 | 1016.4 |
| 20260906041508 | 82 | 135 | 0.0 | 4.3 | 0.00 | 0.00 | 0.00 | 83 | 1016.2 |
| 20260906040007 | 82 | 135 | 0.0 | 3.5 | 0.00 | 0.00 | 0.00 | 83 | 1016.3 |
| 20260906034508 | 82 | 135 | 0.0 | 3.5 | 0.00 | 0.00 | 0.00 | 82 | 1016.0 |
| 20260906033008 | 83 | 135 | 0.0 | 1.7 | 0.00 | 0.00 | 0.00 | 81 | 1016.2 |
| 20260906031508 | 83 | 135 | 0.9 | 3.5 | 0.00 | 0.00 | 0.00 | 81 | 1016.0 |
| 20260906030008 | 83 | 135 | 0.0 | 4.3 | 0.00 | 0.00 | 0.00 | 80 | 1015.9 |
| 20260906024510 | 83 | 135 | 0.0 | 0.0 | 0.00 | 0.00 | 0.00 | 79 | 1015.7 |
| 20260906023021 | 84 | 135 | 0.0 | 3.5 | 0.00 | 0.00 | 0.00 | 79 | 1015.5 |
| 20260906021512 | 84 | 135 | 0.0 | 0.0 | 0.00 | 0.00 | 0.00 | 78 | 1015.2 |
| 20260906020016 | 84 | 135 | 0.0 | 0.0 | 0.00 | 0.00 | 0.00 | 77 | 1015.0 |
| 20260906014511 | 85 | 135 | 0.0 | 2.6 | 0.00 | 0.00 | 0.00 | 76 | 1014.9 |
| 20260906013028 | 85 | 135 | 0.9 | 3.5 | 0.00 | 0.00 | 0.00 | 75 | 1014.9 |
| 20260906011533 | 86 | 135 | 0.0 | 2.6 | 0.00 | 0.00 | 0.00 | 75 | 1014.8 |
| 20260906010015 | 86 | 135 | 0.0 | 4.3 | 0.00 | 0.00 | 0.00 | 74 | 1014.7 |
| 20260906004524 | 87 | 135 | 0.0 | 3.5 | 0.00 | 0.00 | 0.00 | 73 | 1014.6 |
| 20260906003027 | 87 | 135 | 0.0 | 3.5 | 0.00 | 0.00 | 0.00 | 72 | 1014.6 |
| 20260906001516 | 88 | 153 | 0.9 | 4.3 | 0.00 | 0.00 | 0.00 | 71 | 1014.5 |
| 20260906000016 | 88 | 223 | 0.0 | 4.3 | 0.00 | 0.00 | 0.00 | 70 | 1014.4 |
| 20260905234516 | 88 | 235 | 0.0 | 5.2 | 0.00 | 0.00 | 0.00 | 69 | 1014.4 |
| 20260905233030 | 89 | 252 | 0.9 | 7.0 | 0.00 | 0.00 | 0.00 | 69 | 1014.4 |
| 20260905231529 | 90 | 227 | 0.9 | 4.3 | 0.00 | 0.00 | 0.00 | 68 | 1014.3 |
| 20260905230031 | 90 | 206 | 0.9 | 6.1 | 0.00 | 0.00 | 0.00 | 67 | 1014.3 |
| 20260905224527 | 91 | 213 | 0.9 | 4.3 | 0.00 | 0.00 | 0.00 | 66 | 1014.3 |
| 20260905223013 | 91 | 210 | 1.7 | 6.1 | 0.00 | 0.00 | 0.00 | 66 | 1014.2 |
| 20260905221510 | 91 | 256 | 0.9 | 2.6 | 0.00 | 0.00 | 0.00 | 64 | 1014.3 |
| 20260905220005 | 91 | 175 | 1.7 | 4.3 | 0.00 | 0.00 | 0.00 | 64 | 1014.4 |
| 20260905214508 | 91 | 198 | 0.9 | 5.2 | 0.00 | 0.00 | 0.00 | 63 | 1014.5 |
| 20260905213008 | 92 | 211 | 1.7 | 5.2 | 0.00 | 0.00 | 0.00 | 62 | 1014.5 |
| 20260905211515 | 92 | 215 | 0.0 | 2.6 | 0.00 | 0.00 | 0.00 | 65 | 1014.6 |
| 20260905210005 | 92 | 286 | 0.0 | 8.7 | 0.00 | 0.00 | 0.00 | 63 | 1014.3 |
| 20260905204503 | 92 | 276 | 1.7 | 7.0 | 0.00 | 0.00 | 0.00 | 65 | 1014.2 |
| 20260905203008 | 91 | 302 | 1.7 | 4.3 | 0.00 | 0.00 | 0.00 | 66 | 1014.4 |
| 20260905201508 | 91 | 229 | 2.6 | 5.2 | 0.00 | 0.00 | 0.00 | 66 | 1014.6 |
| 20260905200030 | 91 | 211 | 2.6 | 7.8 | 0.00 | 0.00 | 0.00 | 65 | 1014.8 |
| 20260905194506 | 91 | 334 | 0.9 | 5.2 | 0.00 | 0.00 | 0.00 | 70 | 1015.0 |